Location: Marsån
(66.4167°N, 22.2833°E)
Time: 08:43:57
(UTC+00:00)

ADEOS Rocket - Pass Details

Date: 24 February 2024
Orbit: 858 x 1306 km, 98.7° (Epoch: 20 April)

Event Time Altitude Azimuth Distance (km) Brightness Sun altitude
Rises 17:43:28 0° 177° (S) 4,213 6.2 -14.6°
Reaches altitude 10° 17:46:18 10° 181° (S) 3,206 5.6 -14.8°
Maximum altitude 17:53:32 56° 259° (W) 1,368 4.1 -15.6°
Drops below altitude 10° 18:00:07 10° 337° (NNW) 2,925 6.0 -16.2°
Sets 18:02:37 0° 342° (NNW) 3,821 6.6 -16.4°
